Dewpoint
12 12 12 12 11 7 7 8 4 4 4 4 4 5 7 10 10 9 9 9 8 7 8 7 5 5 8 11 12 11 11 11 12 12 13 13 12 12 11 10 9 13 7
11 12 12 12 12 11 7 3 3 5 6 6 6 6 9 11 11 11 11 10 9 6 8 8 6 5 7 10 12 12 11 11 11 11 11 11 12 11 11 12 10 8 7
10 11 12 13 12 12 12 12 10 10 13 11 11 11 12 11 12 14 13 12 11 10 7 6 4 5 6 8 11 11 7 9 11 11 11 11 14 12 11 11 12 10 10
9 9 13 13 12 13 13 11 11 10 10 13 11 12 13 11 10 10 10 10 10 11 11 11 10 7 4 3 9 11 9 4 9 11 11 12 13 12 12 11 11 11 9
10 10 11 12 12 11 13 12 13 12 12 13 13 13 13 13 13 13 13 13 13 12 9 8 9 11 11 10 6 4 5 7 10 11 11 13 12 12 12 11 11 11 11
10 10 10 8 10 13 11 14 13 13 13 13 11 10 10 10 10 10 10 11 11 11 11 10 7 4 6 9 10 11 10 10 10 9 11 11 9 10 11 12 12 10 12
9 9 10 7 8 10 13 10 12 9 9 9 9 8 7 7 8 9 10 11 11 11 11 11 11 10 9 7 6 8 10 10 9 7 12 11 12 12 11 9 11 11 11
10 10 10 9 9 8 8 7 6 6 7 6 7 7 7 8 8 10 11 11 11 12 12 12 13 13 13 13 12 10 6 4 5 7 9 12 13 14 13 12 6 7 9
11 10 8 10 8 8 9 10 10 10 10 10 9 9 8 9 10 10 11 12 13 13 13 13 14 14 14 13 13 13 12 10 4 6 12 13 14 14 14 13 12 11 9
9 8 7 8 10 10 11 11 11 10 10 10 11 11 12 12 12 12 12 11 12 12 13 14 14 14 14 14 13 12 13 12 10 10 13 14 14 14 14 14 14 13 12
6 7 8 10 11 11 12 11 10 11 12 14 15 15 15 15 14 14 14 14 14 13 14 14 14 14 13 12 12 13 12 14 13 11 12 13 14 14 14 14 14 14 13
6 8 9 11 11 12 12 13 14 15 15 16 15 15 15 15 14 14 14 14 14 14 14 13 14 14 14 13 13 13 12 13 13 13 13 14 14 15 13 14 13 12 10
7 9 10 11 12 13 14 15 15 15 15 15 14 15 15 15 15 14 14 14 14 14 14 14 15 14 15 15 14 13 13 14 14 13 12 13 13 14 12 11 12 11 8
7 8 10 13 13 13 14 14 15 15 14 15 15 15 15 14 14 14 14 13 13 14 15 15 15 15 15 15 14 14 15 15 14 13 14 15 14 13 12 12 12 11 11
8 10 13 15 15 15 16 16 15 15 15 15 15 15 16 15 12 12 13 14 14 15 14 14 15 14 14 14 15 15 15 15 15 14 13 14 15 15 12 13 12 10 10
9 12 14 14 15 15 15 15 15 15 15 15 15 15 15 16 13 13 15 15 15 15 15 14 14 14 14 15 15 15 14 14 15 14 15 14 14 14 14 12 12 12 11
9 12 12 13 13 13 14 15 15 15 16 15 15 14 15 16 15 15 15 15 15 15 15 15 15 15 15 14 14 13 11 9 9 14 15 15 15 14 14 13 11 10 11
11 11 12 13 14 13 13 14 15 15 15 15 15 15 14 15 15 15 16 15 15 15 9 10 15 15 14 12 13 12 7 8 10 12 15 15 14 14 13 13 12 10 11
11 12 12 12 12 14 13 14 14 14 14 15 15 15 15 15 15 15 15 15 15 15 15 11 14 13 13 12 11 7 8 11 12 13 15 14 15 14 14 13 12 11 12
11 11 11 11 12 11 13 13 13 14 14 15 14 15 15 15 15 14 15 15 14 15 15 15 15 15 14 12 11 7 7 11 12 12 14 13 12 13 12 10 10 12 12
10 11 11 11 11 12 12 12 13 14 15 14 14 14 14 14 15 15 16 16 14 13 16 15 14 13 15 15 15 12 8 10 12 13 13 11 12 13 12 10 11 12 13
10 9 11 11 11 12 11 12 15 15 15 15 14 14 13 14 14 14 15 15 13 13 13 14 13 14 14 16 16 14 12 12 11 11 10 11 12 11 11 11 11 12 12
9 9 9 10 10 11 12 14 15 15 15 14 13 14 14 14 15 15 15 16 16 16 15 15 15 14 15 15 16 15 13 12 12 10 11 12 13 12 12 12 12 12 12
8 9 9 9 10 11 12 14 14 15 16 14 14 14 15 15 15 15 15 15 15 15 15 16 16 15 15 15 14 13 13 14 13 12 13 13 12 11 12 13 12 12 12
9 9 9 9 10 11 10 13 13 14 14 15 15 15 15 14 15 15 15 15 15 15 14 14 16 16 16 15 14 13 12 8 10 12 13 13 13 14 12 13 13 12 12
9 9 9 9 10 11 11 12 13 13 14 14 15 15 14 14 14 14 15 16 15 15 15 14 16 15 15 14 15 14 12 9 8 12 12 13 14 12 11 13 13 13 13
Wind_Speed
16 15 15 16 15 16 16 17 17 16 15 14 14 15 15 16 17 17 16 16 14 12 12 12 11 10 9 10 10 10 9 9 10 11 11 10 11 8 11 11 11 11 12
18 16 15 16 14 15 15 15 15 14 13 11 11 12 11 12 13 13 13 12 11 11 13 11 10 8 7 6 5 7 7 6 6 7 7 8 7 9 7 9 12 9 11
17 17 16 15 14 14 12 12 11 10 10 9 9 9 10 10 10 11 10 10 10 10 10 9 8 7 6 5 7 7 4 3 3 1 2 5 5 6 7 8 8 9 8
16 16 15 14 14 13 12 12 11 10 11 10 11 11 11 11 10 9 8 7 7 7 7 7 7 7 8 7 9 7 4 2 2 1 3 3 3 4 7 8 8 10 10
16 16 14 14 13 13 13 12 11 10 10 9 9 10 10 9 9 8 7 7 6 5 5 5 6 7 6 6 6 6 6 4 3 0 1 2 2 2 4 5 7 9 10
16 15 13 13 13 12 12 12 10 9 8 8 8 8 7 7 7 7 6 6 5 5 4 5 5 6 5 5 4 4 6 4 3 1 2 4 3 3 2 3 6 8 8
16 14 12 12 12 11 11 10 9 8 7 7 6 5 5 5 4 4 5 5 5 5 4 4 4 3 2 2 3 4 5 5 4 3 4 3 3 2 2 3 5 7 7
14 14 13 12 11 10 10 9 8 8 7 7 6 5 4 3 3 4 4 6 6 4 4 3 2 2 1 1 1 4 4 4 4 6 7 6 5 4 4 4 6 7 8
14 13 12 11 11 10 9 9 8 8 7 6 6 5 4 4 4 4 4 4 4 3 2 2 1 0 1 2 3 3 3 4 6 8 8 7 6 6 5 6 6 6 7
13 13 13 12 11 10 9 8 9 9 9 8 8 7 6 4 3 2 2 1 1 1 1 1 1 2 3 3 4 4 5 6 5 6 7 8 8 7 7 7 6 6 7
14 14 13 12 11 10 10 10 11 11 10 8 6 3 3 2 2 2 2 2 2 3 1 1 3 3 2 2 3 3 4 5 6 8 9 9 9 9 9 8 7 6 8
16 15 13 13 12 12 12 12 11 9 7 4 2 2 1 2 3 2 2 2 3 3 2 1 2 2 2 3 4 4 3 3 5 6 7 7 7 8 7 8 8 7 7
15 15 13 13 13 13 12 10 6 4 3 2 2 1 1 2 3 4 4 3 3 4 3 4 4 5 5 5 5 5 5 7 8 9 9 9 8 6 8 9 8 9 8
15 15 15 14 14 13 10 7 5 3 3 2 0 1 2 3 3 5 4 4 3 3 4 5 7 7 6 6 7 8 9 9 9 10 10 12 11 9 10 10 9 10 8
16 17 17 16 13 11 9 6 4 3 2 2 1 1 3 2 3 2 2 3 4 5 5 6 7 7 6 7 9 11 12 13 13 13 11 10 12 13 12 12 11 10 9
17 17 18 15 13 11 9 7 5 3 2 1 0 1 3 4 1 2 3 3 3 4 8 9 7 7 8 9 12 12 15 16 16 17 16 12 12 14 12 13 13 12 11
18 19 17 14 12 11 9 8 6 4 1 1 1 1 1 4 3 2 2 4 6 6 11 10 8 8 11 13 14 15 18 20 19 18 18 16 14 14 13 12 13 12 13
17 20 17 16 12 12 11 9 7 5 2 2 2 1 1 3 3 2 2 4 4 8 9 7 6 9 11 13 14 18 19 16 15 15 16 16 17 14 15 11 13 13 13
17 18 17 15 12 13 12 10 8 7 6 5 4 2 2 3 3 2 2 4 6 6 10 10 6 8 12 13 17 19 18 12 10 10 13 15 16 12 10 13 14 14 13
20 19 17 15 14 13 13 13 10 10 8 8 6 7 6 5 3 3 5 4 7 7 10 9 10 12 14 14 17 19 18 13 11 12 6 10 9 9 10 11 18 17 15
23 23 21 20 17 16 17 14 12 10 8 8 7 6 4 5 6 4 5 6 8 6 8 8 11 13 14 16 19 18 16 14 10 8 3 6 10 11 13 12 17 20 16
26 23 23 22 20 19 18 15 12 10 10 9 7 4 4 4 4 6 6 6 6 6 9 9 12 13 15 16 17 16 9 9 10 8 8 7 18 17 13 16 22 22 18
30 29 26 24 21 19 18 17 15 13 11 9 9 9 7 6 7 8 7 7 9 10 12 13 14 15 15 18 17 14 10 12 14 12 14 18 11 11 16 17 18 19 18
25 27 28 25 23 20 21 21 18 16 13 12 11 11 10 10 11 11 10 10 12 14 17 19 18 16 16 16 18 18 16 15 12 13 17 20 15 14 17 17 17 17 17
26 24 26 26 24 22 24 23 21 20 18 15 13 12 13 12 13 11 12 13 14 16 19 23 19 17 18 18 16 14 13 19 24 23 26 24 24 23 19 16 11 15 16
28 25 25 26 25 24 24 24 24 22 20 19 17 14 14 14 14 13 14 15 17 18 20 19 18 19 18 19 16 14 18 25 33 31 30 26 24 22 18 15 8 8 10
Wind_Direction
150 146 139 128 126 125 126 130 129 126 121 117 118 113 108 111 114 120 130 137 140 150 154 142 138 130 114 105 93 91 93 87 91 93 89 87 90 97 105 113 108 122 123
147 146 139 135 138 140 136 136 136 130 124 124 125 121 116 114 120 123 130 138 139 137 150 154 154 146 132 122 121 105 96 96 96 101 85 77 89 92 106 117 110 119 129
151 149 143 140 142 140 141 141 138 133 131 129 129 125 122 121 125 128 132 136 138 145 156 166 168 174 182 166 164 165 152 122 97 100 100 96 100 128 121 130 145 131 128
152 150 148 145 141 141 139 135 130 131 134 129 127 120 115 117 121 127 134 142 151 157 164 167 174 186 198 196 204 209 214 210 220 173 178 138 127 130 133 148 148 152 135
158 154 151 151 147 142 143 137 138 131 130 127 127 125 122 119 119 124 132 136 143 151 162 183 195 201 204 205 213 219 219 220 222 215 271 195 170 176 172 173 154 162 163
158 152 153 151 155 147 146 140 139 148 145 142 139 130 128 128 130 131 131 135 139 149 162 174 190 204 210 225 229 236 241 242 251 261 110 135 136 172 177 155 177 170 170
153 147 150 154 155 154 154 155 157 155 164 159 152 147 140 134 132 137 141 136 133 142 150 160 176 180 173 205 230 242 246 241 240 218 179 161 163 186 194 185 190 193 204
150 152 154 154 156 157 158 155 153 161 165 159 153 147 145 148 149 154 146 140 141 141 146 136 114 110 134 161 217 237 241 235 225 210 201 195 219 208 213 201 203 220 219
160 155 150 155 158 160 152 151 157 166 162 156 146 140 141 141 148 153 145 141 139 141 125 116 109 236 286 298 283 290 289 255 223 217 214 243 235 251 255 245 225 213 226
159 156 158 160 160 154 155 158 163 154 144 137 130 130 132 129 137 139 157 171 173 181 175 233 268 272 278 280 278 269 264 260 257 240 242 254 264 268 268 251 251 241 234
165 163 164 157 149 149 151 150 142 132 131 130 125 149 156 168 214 230 242 265 273 264 280 315 284 271 278 271 282 286 271 258 251 245 248 248 251 262 274 242 250 262 258
168 166 160 153 156 154 145 140 134 134 142 150 153 163 231 290 266 268 318 334 324 332 345 341 346 328 313 320 305 300 295 269 255 255 253 250 260 261 246 224 235 252 257
167 165 162 163 160 153 146 146 149 157 171 195 227 263 262 286 287 302 321 333 329 323 305 300 307 308 299 295 289 284 273 270 265 257 252 253 253 256 242 234 244 249 246
174 169 168 164 157 153 153 154 161 156 150 143 65 15 341 320 324 304 311 300 307 306 308 310 312 297 283 278 280 280 280 276 270 266 265 261 260 261 261 237 239 248 260
179 174 168 164 159 159 160 171 182 190 182 155 98 68 1 352 347 342 359 331 311 295 292 303 310 292 284 284 286 287 287 278 269 269 272 274 270 260 257 260 254 257 270
180 178 176 172 174 179 179 172 174 195 186 276 230 163 82 18 322 33 326 308 320 325 312 299 292 304 306 294 288 290 299 301 278 268 260 268 274 261 261 256 253 258 271
185 180 184 184 193 197 193 192 191 195 243 216 170 167 43 20 39 21 7 316 298 336 328 311 305 300 315 312 298 300 305 301 281 266 252 257 268 267 261 255 254 258 265
188 190 190 192 198 204 201 204 200 206 253 240 238 299 301 352 356 23 27 9 22 339 344 324 293 299 308 310 308 315 318 303 283 267 247 251 259 259 256 271 258 256 262
208 204 202 203 200 199 200 205 215 234 255 247 263 265 300 331 337 347 342 326 349 351 5 13 357 330 320 319 324 333 337 314 284 282 249 244 252 259 265 283 266 259 259
221 219 217 218 210 210 215 219 233 234 238 252 260 286 294 283 275 303 336 345 340 329 351 344 344 338 335 339 337 335 331 329 287 285 264 255 247 239 257 277 289 261 252
229 229 226 225 219 221 222 225 230 229 231 232 257 285 290 277 267 295 335 340 334 332 339 332 332 334 339 335 337 334 330 316 322 303 325 309 278 258 270 282 280 265 248
237 235 232 231 228 228 226 223 225 230 230 236 244 256 244 262 285 292 309 338 356 340 329 335 331 332 339 337 338 336 338 322 302 307 305 306 314 299 274 274 268 260 240
237 234 234 231 228 228 221 213 222 225 231 243 241 251 252 271 289 302 311 322 329 329 329 326 323 329 335 332 334 333 331 330 322 313 321 324 308 281 274 270 259 246 234
232 233 232 231 226 225 217 218 223 223 229 238 248 241 254 280 291 286 288 302 306 311 314 311 308 322 326 328 327 336 327 330 339 321 315 320 319 297 292 295 260 243 242
228 226 226 227 226 226 221 223 227 227 228 238 245 244 257 278 302 289 276 289 301 303 318 309 295 299 306 314 312 314 318 297 294 301 302 303 294 303 299 284 268 243 233
229 226 225 227 227 225 222 224 228 233 234 236 243 254 262 272 282 287 280 285 293 300 308 303 291 286 291 302 303 299 277 281 285 287 283 289 296 306 305 282 277 250 225
Height
1542 1544 1545 1546 1547 1548 1549 1550 1552 1553 1554 1554 1555 1555 1555 1556 1556 1557 1557 1558 1559 1560 1561 1562 1562 1564 1565 1567 1567 1566 1566 1567 1567 1568 1569 1570 1569 1569 1570 1570 1571 1571 1571
1542 1544 1546 1547 1549 1550 1551 1553 1554 1555 1556 1556 1557 1557 1557 1558 1558 1558 1559 1560 1561 1561 1563 1563 1565 1567 1568 1568 1567 1568 1568 1567 1568 1568 1569 1569 1571 1571 1572 1572 1572 1572 1573
1543 1545 1547 1548 1550 1551 1553 1555 1556 1557 1557 1557 1558 1558 1559 1559 1560 1561 1561 1562 1562 1563 1564 1566 1567 1568 1568 1568 1568 1567 1567 1569 1570 1570 1571 1571 1572 1572 1573 1574 1575 1574 1574
1544 1546 1548 1550 1551 1553 1555 1556 1557 1558 1559 1559 1560 1560 1561 1561 1562 1562 1563 1563 1564 1565 1566 1567 1567 1567 1566 1567 1567 1568 1569 1570 1570 1571 1571 1573 1574 1572 1574 1573 1573 1574 1574
1545 1547 1549 1551 1553 1555 1556 1557 1558 1560 1561 1562 1563 1562 1563 1563 1564 1564 1565 1565 1565 1566 1566 1566 1567 1567 1567 1567 1568 1569 1569 1571 1571 1572 1573 1574 1575 1575 1575 1574 1574 1576 1576
1546 1548 1551 1553 1555 1556 1557 1558 1561 1562 1563 1563 1563 1563 1564 1564 1565 1566 1566 1566 1567 1567 1567 1567 1567 1566 1568 1568 1569 1569 1569 1571 1572 1573 1573 1574 1574 1575 1576 1576 1577 1578 1580
1548 1550 1552 1554 1556 1557 1559 1560 1561 1562 1563 1564 1564 1564 1565 1565 1566 1567 1566 1567 1567 1566 1567 1567 1567 1568 1569 1569 1569 1568 1568 1570 1571 1572 1573 1574 1574 1574 1574 1576 1576 1577 1579
1550 1552 1553 1555 1557 1559 1560 1561 1562 1563 1564 1564 1565 1566 1566 1566 1567 1567 1567 1566 1566 1567 1567 1568 1569 1568 1568 1568 1568 1566 1567 1569 1570 1570 1570 1570 1571 1571 1571 1573 1575 1576 1577
1552 1552 1553 1556 1558 1560 1560 1561 1563 1564 1564 1565 1566 1567 1567 1567 1567 1567 1567 1567 1568 1568 1569 1569 1569 1568 1568 1568 1566 1567 1567 1568 1567 1568 1569 1570 1571 1571 1572 1573 1573 1574 1574
1552 1553 1555 1556 1559 1560 1561 1562 1563 1564 1565 1566 1567 1567 1567 1568 1567 1568 1568 1568 1568 1568 1569 1569 1568 1568 1568 1567 1567 1567 1567 1566 1568 1569 1569 1570 1571 1572 1572 1572 1574 1574 1574
1552 1554 1556 1557 1559 1561 1562 1563 1563 1565 1566 1567 1568 1568 1568 1568 1568 1568 1568 1569 1568 1568 1568 1568 1568 1567 1567 1567 1567 1567 1566 1567 1567 1567 1568 1567 1568 1569 1570 1571 1571 1572 1571
1553 1555 1557 1558 1561 1562 1563 1564 1564 1566 1567 1568 1568 1568 1568 1568 1568 1568 1569 1569 1569 1569 1568 1568 1568 1567 1567 1567 1567 1567 1566 1566 1566 1566 1566 1566 1567 1567 1567 1568 1569 1568 1569
1554 1556 1558 1560 1561 1563 1564 1565 1566 1567 1568 1568 1569 1569 1569 1568 1568 1569 1568 1569 1568 1569 1568 1568 1568 1568 1567 1567 1567 1567 1566 1566 1566 1566 1565 1565 1564 1565 1565 1566 1568 1568 1566
1554 1557 1559 1561 1562 1563 1565 1566 1566 1567 1568 1569 1569 1569 1569 1568 1568 1568 1568 1567 1568 1568 1568 1568 1568 1567 1567 1567 1566 1566 1565 1565 1565 1564 1563 1564 1564 1564 1564 1565 1566 1566 1566
1555 1558 1560 1561 1562 1564 1565 1566 1567 1567 1568 1569 1569 1569 1568 1568 1568 1567 1567 1567 1567 1568 1568 1568 1567 1565 1566 1565 1564 1564 1564 1563 1562 1561 1561 1562 1562 1563 1563 1563 1563 1563 1563
1555 1558 1560 1561 1563 1564 1565 1566 1567 1567 1568 1568 1569 1568 1568 1568 1567 1567 1567 1567 1568 1568 1567 1567 1566 1566 1566 1564 1563 1563 1562 1560 1559 1557 1558 1558 1558 1559 1560 1560 1559 1561 1561
1555 1557 1558 1560 1562 1564 1566 1566 1567 1567 1568 1568 1568 1569 1569 1568 1568 1568 1568 1568 1568 1568 1567 1565 1565 1565 1564 1563 1561 1559 1557 1556 1554 1553 1554 1554 1554 1554 1556 1555 1556 1558 1559
1554 1555 1558 1560 1561 1563 1565 1566 1567 1567 1568 1568 1569 1569 1569 1569 1569 1569 1568 1569 1568 1568 1566 1564 1564 1564 1562 1561 1559 1558 1554 1551 1548 1549 1550 1550 1551 1552 1554 1554 1553 1555 1556
1552 1554 1556 1558 1560 1562 1563 1565 1566 1567 1568 1568 1569 1569 1570 1570 1569 1569 1569 1568 1568 1567 1565 1564 1564 1563 1561 1560 1557 1554 1552 1549 1548 1548 1547 1548 1548 1549 1550 1551 1551 1552 1553
1550 1552 1555 1557 1559 1561 1562 1563 1564 1566 1567 1567 1568 1569 1569 1569 1569 1569 1568 1568 1566 1566 1565 1564 1562 1561 1559 1558 1555 1553 1551 1549 1547 1547 1546 1546 1547 1548 1550 1547 1549 1548 1548
1548 1550 1552 1555 1557 1558 1560 1561 1563 1565 1566 1567 1567 1568 1568 1568 1568 1568 1567 1567 1565 1565 1563 1563 1561 1560 1559 1557 1555 1553 1549 1546 1545 1544 1544 1545 1545 1544 1546 1544 1544 1544 1545
1543 1546 1549 1552 1555 1556 1558 1560 1562 1564 1565 1566 1567 1567 1568 1568 1567 1567 1566 1565 1564 1563 1564 1562 1561 1560 1558 1556 1555 1551 1550 1549 1545 1544 1543 1542 1540 1542 1541 1543 1542 1542 1542
1538 1541 1545 1548 1552 1554 1556 1558 1560 1562 1564 1565 1566 1566 1567 1567 1567 1566 1566 1565 1564 1563 1563 1561 1560 1558 1557 1555 1554 1553 1551 1550 1548 1544 1543 1541 1537 1537 1538 1539 1539 1538 1538
1533 1538 1542 1545 1548 1551 1554 1557 1559 1561 1563 1563 1564 1565 1565 1565 1565 1564 1564 1563 1563 1562 1561 1560 1557 1557 1554 1554 1553 1553 1552 1551 1550 1545 1541 1538 1537 1535 1533 1533 1532 1533 1533
1530 1534 1538 1542 1545 1548 1551 1554 1557 1558 1560 1561 1562 1563 1564 1564 1563 1562 1562 1562 1561 1560 1558 1556 1555 1554 1553 1553 1552 1551 1548 1546 1546 1544 1537 1534 1531 1530 1530 1528 1527 1528 1529
1526 1530 1534 1538 1541 1545 1547 1550 1553 1555 1557 1559 1560 1561 1562 1562 1562 1561 1560 1560 1559 1557 1556 1553 1551 1549 1550 1548 1547 1544 1540 1537 1537 1537 1531 1529 1527 1525 1524 1522 1524 1524 1526